Orbital Elements at Epoch 2459000.5 (2020-May-31.0) TDB
Reference: JPL 16 (heliocentric ecliptic J2000)
Element | Value | Uncertainty (1-sigma) | Units |
e | .1345092877811801 | 5.7595e-08 | |
a | 2.460495360187173 | 1.1247e-08 | au |
q | 2.129535881699498 | 1.4022e-07 | au |
i | 11.31604929348731 | 6.3553e-06 | deg |
node | 285.5336787480815 | 2.0893e-05 | deg |
peri | 172.031758338454 | 2.716e-05 | deg |
M | 139.8534622499967 | 1.5678e-05 | deg |
tp | 2458452.850148715149 (2018-Nov-30.35014872) | 6.1025e-05 | TDB |
period | 1409.718024070947 3.86 | 9.666e-06 2.646e-08 | d yr |
n | .2553702186203177 | 1.751e-09 | deg/d |
Q | 2.791454838674848 | 1.276e-08 | au |
|
| | Orbit Determination Parameters
Additional Information
|